1506639600.86,6985,16.94,74620.5,-3.47,-38.23,-38.35,0,*65
1506639602.11,6986,16.94,74620.8,-3.47,-38.23,-38.35,0,*66
1506639603.33,6987,16.94,74620.3,-3.47,-38.43,-38.43,0,*60
1506639604.56,6988,17.0,74624.3,-3.49,-38.43,-38.49,0,*6B
1506639605.78,6989,17.0,74624.8,-3.47,-38.35,-38.55,0,*68
1506639607.01,6990,17.0,74624.5,-3.49,-38.43,-38.49,0,*62
1506639608.24,6991,17.0,74622.3,-3.49,-38.43,-38.49,0,*63
1506639609.47,6992,16.94,74620.0,-3.49,-38.43,-38.49,0,*60
1506639610.69,6993,17.0,74624.0,-3.49,-38.43,-38.67,0,*6D
1506639611.93,6994,17.0,74624.0,-3.49,-38.29,-38.43,0,*60
1506639613.15,6995,16.94,74622.3,-3.47,-38.17,-38.35,0,*63
1506639614.38,6996,17.0,74624.8,-3.49,-38.49,-38.43,0,*64
1506639615.64,6997,16.94,74622.0,-3.49,-38.29,-38.49,0,*69
1506639616.85,6998,17.0,74626.0,-3.49,-38.43,-38.43,0,*60
1506639618.09,6999,17.0,74626.5,-3.47,-38.23,-38.61,0,*69
1506639619.31,7000,16.94,74620.8,-3.47,-38.43,-38.43,0,*67
1506639620.52,7001,16.94,74620.5,-3.49,-38.61,-38.61,0,*68
1506639621.78,7002,16.94,74620.3,-3.49,-38.49,-38.49,0,*6B
1506639623.01,7003,17.0,74626.3,-3.49,-38.29,-38.43,0,*66
1506639624.27,7004,16.94,74622.0,-3.53,-38.23,-38.49,0,*6A
1506639625.53,7005,17.0,74626.3,-3.51,-38.29,-38.43,0,*69
1506639626.78,7006,17.0,74626.5,-3.51,-38.29,-38.61,0,*6A
1506639627.98,7007,16.94,74620.5,-3.53,-38.35,-38.61,0,*64
1506639629.24,7008,16.94,74620.5,-3.51,-38.43,-38.49,0,*62
1506639630.52,7009,16.94,74622.8,-3.51,-38.49,-38.49,0,*69
1506639631.78,7010,17.0,74624.5,-3.51,-38.43,-38.49,0,*6B
1506639632.99,7011,16.94,74620.8,-3.53,-38.55,-38.55,0,*62
1506639634.22,7012,16.94,74620.5,-3.53,-38.49,-38.55,0,*6C
1506639635.43,7013,17.0,74624.5,-3.53,-38.35,-38.55,0,*66
1506639636.71,7014,16.94,74620.3,-3.51,-38.29,-38.49,0,*63
1506639637.97,7015,16.94,74620.0,-3.51,-38.49,-38.61,0,*6E
1506639639.23,7016,16.94,74618.5,-3.51,-38.29,-38.55,0,*6C
1506639640.46,7017,16.94,74622.0,-3.53,-38.35,-38.49,0,*6F
1506639641.72,7018,17.0,74622.5,-3.53,-38.29,-38.49,0,*6D
1506639642.98,7019,16.94,74622.3,-3.53,-38.29,-38.29,0,*6A
1506639644.21,7020,16.94,74622.8,-3.53,-38.29,-38.35,0,*6D
1506639645.45,7021,17.0,74624.5,-3.53,-38.29,-38.35,0,*6C
1506639646.73,7022,16.94,74620.8,-3.55,-38.29,-38.49,0,*62
1506639647.96,7023,16.94,74622.0,-3.53,-38.35,-38.49,0,*68
1506639649.19,7024,16.94,74618.5,-3.53,-38.35,-38.49,0,*6F
1506639650.45,7025,16.94,74622.0,-3.53,-38.49,-38.49,0,*65
1506639651.67,7026,16.94,74620.0,-3.55,-38.35,-38.35,0,*60
1506639652.93,7027,17.0,74624.0,-3.55,-38.29,-38.35,0,*6C
1506639654.18,7028,16.94,74622.3,-3.55,-38.05,-38.23,0,*6A
1506639655.44,7029,16.94,74620.0,-3.53,-38.11,-38.23,0,*68
1506639656.69,7030,16.94,74620.5,-3.55,-38.05,-38.23,0,*63
1506639657.94,7031,16.94,74620.3,-3.55,-38.05,-38.11,0,*63
1506639659.21,7032,16.94,74620.8,-3.55,-38.11,-38.29,0,*6E
1506639660.49,7033,16.94,74620.3,-3.55,-38.11,-38.29,0,*6F
1506639661.73,7034,16.94,74620.0,-3.53,-38.29,-38.35,0,*68
1506639662.99,7035,16.94,74622.5,-3.53,-38.49,-38.67,0,*68
1506639664.23,7036,16.94,74620.3,-3.55,-38.55,-38.67,0,*60
1506639665.49,7037,16.94,74620.3,-3.55,-38.55,-38.67,0,*61
1506639666.69,7038,16.94,74620.5,-3.57,-38.55,-38.55,0,*6D
1506639667.9,7039,17.0,74622.5,-3.57,-38.55,-38.61,0,*6B
1506639669.15,7040,16.94,74622.5,-3.55,-38.35,-38.49,0,*6B
1506639670.41,7041,16.94,74620.5,-3.55,-38.29,-38.55,0,*6A
1506639671.68,7042,16.94,74622.5,-3.55,-38.23,-38.29,0,*68
1506639672.89,7043,16.94,74618.3,-3.57,-38.17,-38.35,0,*61
1506639674.1,7044,17.0,74622.8,-3.57,-38.17,-38.35,0,*66
1506639675.38,7045,16.94,74622.3,-3.55,-38.23,-38.29,0,*6F
1506639676.66,7046,16.94,74620.5,-3.55,-38.23,-38.29,0,*6C
1506639677.93,7047,16.94,74620.0,-3.55,-38.11,-38.23,0,*66
1506639679.17,7048,16.94,74620.5,-3.57,-38.29,-38.43,0,*66
1506639680.4,7049,16.94,74622.5,-3.57,-38.29,-38.43,0,*67
1506639681.64,7050,16.94,74622.0,-3.57,-38.17,-38.29,0,*6E
1506639682.91,7051,16.94,74622.8,-3.55,-38.11,-38.29,0,*6B
1506639684.17,7052,16.94,74620.5,-3.57,-37.99,-38.29,0,*65
1506639685.43,7053,16.94,74618.5,-3.57,-38.11,-38.29,0,*6B
1506639686.64,7054,16.94,74620.3,-3.57,-38.17,-38.35,0,*67
1506639687.85,7055,17.0,74622.3,-3.57,-38.17,-38.35,0,*66
1506639689.08,7056,16.94,74620.5,-3.57,-38.17,-38.29,0,*68
1506639690.29,7057,16.94,74622.3,-3.57,-38.17,-38.35,0,*64
1506639691.55,7058,16.94,74620.0,-3.57,-38.29,-38.29,0,*6B
1506639692.79,7059,16.94,74622.8,-3.57,-38.29,-38.35,0,*67
1506639694.06,7060,16.94,74616.8,-3.55,-38.11,-38.23,0,*63
1506639695.32,7061,16.94,74618.3,-3.55,-38.05,-38.23,0,*67
1506639696.52,7062,16.94,74618.8,-3.57,-38.17,-38.17,0,*62
1506639697.76,7063,16.94,74620.0,-3.57,-38.17,-38.29,0,*6E
1506639699.01,7064,16.94,74618.0,-3.57,-38.11,-38.29,0,*6F
1506639700.25,7065,16.94,74622.3,-3.57,-38.29,-38.35,0,*68
1506639701.5,7066,17.0,74624.3,-3.55,-38.29,-38.35,0,*69
1506639702.77,7067,16.94,74618.5,-3.57,-38.29,-38.29,0,*67
1506639703.97,7068,16.94,74620.5,-3.57,-38.17,-38.35,0,*68
1506639705.2,7069,16.94,74620.0,-3.57,-38.11,-38.17,0,*6F
1506639706.43,7070,16.94,74620.5,-3.57,-38.11,-38.17,0,*67
1506639707.68,7071,16.94,74616.5,-3.57,-38.11,-38.29,0,*6B
1506639708.91,7072,16.94,74622.0,-3.57,-38.05,-38.11,0,*66
1506639710.16,7073,16.94,74618.8,-3.55,-38.05,-38.23,0,*64
1506639711.4,7074,16.94,74622.3,-3.57,-38.17,-38.29,0,*68
1506639712.63,7075,16.94,74620.3,-3.57,-38.29,-38.55,0,*6F
1506639713.84,7076,16.94,74618.5,-3.57,-38.17,-38.35,0,*67
1506639715.1,7077,16.94,74620.0,-3.57,-38.11,-38.29,0,*6D
1506639716.36,7078,16.94,74616.5,-3.57,-38.11,-38.29,0,*62
1506639717.61,7079,16.94,74622.0,-3.57,-38.11,-38.29,0,*63
1506639718.85,7080,17.0,74622.3,-3.57,-38.29,-38.35,0,*63
1506639720.11,7081,16.94,74618.8,-3.57,-38.11,-38.29,0,*64
1506639721.31,7082,17.0,74622.3,-3.57,-38.17,-38.17,0,*6C
1506639722.55,7083,16.94,74620.5,-3.57,-38.29,-38.35,0,*60
1506639723.78,7084,16.94,74620.0,-3.57,-38.17,-38.29,0,*67
1506639725.02,7085,16.94,74618.5,-3.57,-38.17,-38.29,0,*66
1506639726.22,7086,16.94,74620.8,-3.57,-38.17,-38.17,0,*68
1506639727.45,7087,16.94,74618.5,-3.57,-38.29,-38.35,0,*64
1506639728.69,7088,16.94,74620.8,-3.57,-38.17,-38.29,0,*6B
1506639729.92,7089,16.94,74620.8,-3.57,-38.17,-38.29,0,*6A
1506639731.16,7090,16.94,74620.3,-3.57,-38.29,-38.55,0,*64
1506639732.42,7091,16.94,74620.0,-3.57,-38.29,-38.29,0,*6E
1506639733.63,7092,16.94,74620.3,-3.57,-38.17,-38.35,0,*6D
1506639734.84,7093,16.94,74622.0,-3.57,-38.17,-38.35,0,*6C
1506639736.04,7094,16.94,74616.8,-3.57,-38.35,-38.43,0,*6A
1506639737.29,7095,16.94,74618.3,-3.55,-38.35,-38.49,0,*63
1506639738.53,7096,16.94,74616.0,-3.57,-38.35,-38.29,0,*64
1506639739.79,7097,16.94,74620.8,-3.57,-38.29,-38.29,0,*68
1506639741.04,7098,16.94,74620.8,-3.55,-38.05,-38.23,0,*61
1506639742.25,7099,16.94,74618.8,-3.57,-38.17,-38.35,0,*66
1506639743.48,7100,16.94,74620.3,-3.59,-38.17,-38.35,0,*69
1506639744.71,7101,16.94,74622.5,-3.59,-38.61,-38.73,0,*6B
1506639745.94,7102,16.94,74620.3,-3.57,-38.29,-38.43,0,*69
1506639747.18,7103,16.94,74622.5,-3.57,-38.29,-38.43,0,*68
1506639748.38,7104,16.94,74622.0,-3.57,-38.35,-38.43,0,*62
1506639749.61,7105,16.94,74620.0,-3.59,-38.35,-38.55,0,*6A
1506639750.84,7106,16.94,74618.8,-3.59,-38.35,-38.43,0,*6E
1506639752.07,7107,16.94,74616.3,-3.59,-38.35,-38.55,0,*68
1506639753.35,7108,16.94,74622.3,-3.59,-38.11,-38.29,0,*6A
1506639754.61,7109,16.94,74622.5,-3.59,-38.29,-38.35,0,*6D
1506639755.84,7110,16.94,74620.5,-3.59,-38.35,-38.35,0,*68
1506639757.06,7111,16.94,74618.8,-3.59,-38.35,-38.43,0,*68
1506639758.29,7112,16.94,74624.0,-3.59,-38.35,-38.43,0,*6B
1506639759.52,7113,16.94,74622.3,-3.61,-38.23,-38.43,0,*66
1506639760.75,7114,16.94,74618.8,-3.61,-38.43,-38.49,0,*6D
1506639761.98,7115,17.0,74624.0,-3.59,-38.35,-38.55,0,*6B
1506639763.19,7116,16.94,74620.3,-3.61,-38.35,-38.61,0,*64
1506639764.42,7117,16.94,74622.0,-3.59,-38.35,-38.55,0,*69
1506639765.67,7118,16.94,74618.5,-3.59,-38.11,-38.35,0,*66
1506639766.88,7119,16.94,74622.0,-3.61,-38.17,-38.35,0,*6A
1506639768.11,7120,16.94,74618.8,-3.61,-38.23,-38.35,0,*67
1506639769.37,7121,16.94,74622.3,-3.59,-38.29,-38.35,0,*67
1506639770.57,7122,16.94,74620.5,-3.61,-38.17,-38.35,0,*62
1506639771.8,7123,16.94,74616.5,-3.61,-38.35,-38.49,0,*68
1506639773.03,7124,16.94,74616.3,-3.61,-38.23,-38.43,0,*62
1506639774.29,7125,16.94,74622.3,-3.59,-38.29,-38.43,0,*62
1506639775.52,7126,16.94,74622.0,-3.61,-38.35,-38.49,0,*6D
1506639776.75,7127,16.94,74618.8,-3.59,-38.17,-38.35,0,*6C
1506639777.98,7128,16.94,74618.5,-3.61,-38.35,-38.49,0,*63
1506639779.21,7129,16.94,74616.0,-3.59,-38.35,-38.43,0,*63
1506639780.49,7130,16.94,74616.5,-3.59,-38.11,-38.29,0,*61
1506639781.75,7131,16.94,74618.8,-3.59,-38.29,-38.35,0,*66
1506639782.98,7132,16.94,74620.0,-3.59,-38.43,-38.55,0,*6F
1506639784.19,7133,16.94,74618.8,-3.61,-38.35,-38.35,0,*62
1506639785.39,7134,16.94,74620.0,-3.61,-38.17,-38.35,0,*65
1506639786.6,7135,16.94,74622.8,-3.61,-38.17,-38.35,0,*64
1506639787.83,7136,16.94,74620.8,-3.59,-38.17,-38.35,0,*6C
1506639789.09,7137,16.94,74620.8,-3.61,-38.23,-38.49,0,*6A
1506639790.32,7138,16.94,74618.0,-3.61,-38.35,-38.49,0,*62
1506639791.54,7139,16.94,74620.3,-3.61,-38.23,-38.61,0,*6E
1506639792.77,7140,16.94,74620.5,-3.59,-38.35,-38.43,0,*6C
1506639793.98,7141,16.94,74620.3,-3.61,-38.43,-38.61,0,*67
1506639795.24,7142,16.94,74618.5,-3.61,-38.49,-38.79,0,*67
1506639796.47,7143,16.94,74618.0,-3.61,-38.43,-38.49,0,*6F
1506639797.68,7144,16.94,74620.3,-3.61,-38.35,-38.43,0,*63
1506639798.88,7145,16.94,74616.5,-3.61,-38.43,-38.43,0,*63
1506639800.11,7146,16.94,74620.5,-3.61,-38.43,-38.49,0,*6A
1506639801.32,7147,16.94,74616.3,-3.61,-38.35,-38.43,0,*60
1506639802.55,7148,16.94,74618.3,-3.61,-38.43,-38.49,0,*64
1506639803.78,7149,16.94,74618.3,-3.61,-38.35,-38.49,0,*64
1506639804.98,7150,16.94,74616.0,-3.61,-38.35,-38.35,0,*67
1506639806.22,7151,16.94,74620.5,-3.61,-38.05,-38.23,0,*62
1506639807.42,7152,16.94,74618.5,-3.61,-38.17,-38.35,0,*65
1506639808.65,7153,16.94,74620.3,-3.61,-38.23,-38.43,0,*62
1506639809.91,7154,16.94,74622.0,-3.61,-38.23,-38.49,0,*6F
1506639811.12,7155,16.94,74620.8,-3.61,-38.17,-38.35,0,*62
1506639812.35,7156,16.94,74618.5,-3.61,-38.23,-38.35,0,*66
1506639813.61,7157,16.94,74618.3,-3.61,-37.99,-38.23,0,*6E
1506639814.84,7158,16.94,74622.5,-3.61,-38.17,-38.23,0,*68
1506639816.07,7159,16.94,74620.0,-3.61,-38.35,-38.49,0,*65
1506639817.28,7160,16.94,74616.5,-3.61,-38.35,-38.43,0,*65
1506639818.5,7161,16.94,74616.3,-3.61,-38.35,-38.49,0,*6E
1506639819.74,7162,16.94,74618.5,-3.65,-38.55,-38.67,0,*63
1506639820.97,7163,16.94,74620.0,-3.65,-38.55,-38.67,0,*62
1506639822.19,7164,16.94,74618.8,-3.65,-38.43,-38.67,0,*62
1506639823.43,7165,16.94,74618.0,-3.65,-38.43,-38.67,0,*63
1506639824.63,7166,16.94,74618.8,-3.65,-38.43,-38.55,0,*61
1506639825.87,7167,16.94,74620.3,-3.67,-38.55,-38.85,0,*68
1506639827.13,7168,16.94,74620.0,-3.65,-38.49,-38.67,0,*64
1506639828.41,7169,16.94,74618.8,-3.67,-38.49,-38.67,0,*67
1506639829.67,7170,16.94,74616.5,-3.67,-38.43,-38.49,0,*69
1506639830.9,7171,16.94,74618.5,-3.65,-38.43,-38.49,0,*6A
1506639832.16,7172,16.94,74618.3,-3.67,-38.43,-38.49,0,*6B
1506639833.42,7173,16.94,74616.5,-3.67,-38.43,-38.49,0,*6A
1506639834.68,7174,16.94,74620.3,-3.67,-38.55,-38.67,0,*66
1506639835.91,7175,16.94,74622.0,-3.67,-38.43,-38.55,0,*61
1506639837.17,7176,16.94,74622.0,-3.65,-38.49,-38.67,0,*6B
1506639838.43,7177,16.94,74618.0,-3.67,-38.43,-38.67,0,*62
1506639839.69,7178,16.94,74618.0,-3.67,-38.29,-38.43,0,*67
1506639840.95,7179,16.94,74616.8,-3.67,-38.29,-38.43,0,*66
1506639842.18,7180,16.94,74616.8,-3.65,-38.43,-38.49,0,*64
1506639843.44,7181,16.94,74616.3,-3.67,-38.43,-38.49,0,*67
1506639844.71,7182,16.94,74618.5,-3.67,-38.49,-38.55,0,*63
1506639846.0,7183,16.94,74620.8,-3.67,-38.49,-38.49,0,*6F
1506639847.23,7184,16.94,74618.5,-3.67,-38.43,-38.55,0,*6F
1506639848.52,7185,16.94,74618.0,-3.67,-38.29,-38.49,0,*6F
1506639849.75,7186,16.94,74616.5,-3.65,-38.29,-38.43,0,*64
1506639851.04,7187,16.94,74616.3,-3.67,-38.29,-38.49,0,*6D
1506639852.3,7188,16.94,74620.5,-3.67,-38.55,-38.67,0,*65
1506639853.56,7189,16.94,74618.5,-3.67,-38.49,-38.55,0,*68
1506639854.82,7190,16.94,74616.3,-3.67,-38.43,-38.67,0,*6B
1506639856.04,7191,16.94,74620.3,-3.67,-38.55,-38.73,0,*68
1506639857.24,7192,16.94,74616.3,-3.69,-38.55,-38.73,0,*65
1506639858.44,7193,16.94,74618.0,-3.69,-38.61,-38.73,0,*63
1506639859.64,7194,16.94,74618.0,-3.69,-38.61,-38.73,0,*64
1506639860.87,7195,16.94,74616.0,-3.71,-38.55,-38.61,0,*68
1506639862.07,7196,16.94,74616.5,-3.69,-38.55,-38.73,0,*61
1506639863.31,7197,16.94,74616.3,-3.69,-38.49,-38.61,0,*6E
1506639864.56,7198,16.94,74616.8,-3.71,-38.35,-38.49,0,*69
1506639865.81,7199,16.94,74620.0,-3.71,-38.49,-38.73,0,*6A
1506639867.03,7200,16.94,74618.5,-3.71,-38.55,-38.73,0,*64
1506639868.23,7201,16.94,74622.0,-3.69,-38.61,-38.73,0,*6B
1506639869.48,7202,16.94,74614.8,-3.71,-38.35,-38.49,0,*69
1506639870.72,7203,16.94,74618.5,-3.69,-38.49,-38.55,0,*67
1506639872.0,7204,16.94,74616.8,-3.71,-38.29,-38.29,0,*64
1506639873.26,7205,16.94,74618.0,-3.69,-38.29,-38.49,0,*6A
1506639874.54,7206,16.94,74618.0,-3.71,-38.29,-38.49,0,*60
1506639875.77,7207,16.94,74618.8,-3.69,-38.35,-38.49,0,*65
1506639877.03,7208,16.94,74622.0,-3.69,-38.29,-38.49,0,*67
1506639878.31,7209,16.94,74618.5,-3.71,-38.49,-38.49,0,*69
1506639879.56,7210,16.94,74614.0,-3.71,-38.55,-38.49,0,*6C
1506639880.79,7211,16.94,74616.3,-3.71,-38.35,-38.55,0,*66
1506639882.02,7212,16.94,74616.3,-3.71,-38.55,-38.61,0,*64
1506639883.24,7213,16.94,74618.8,-3.71,-38.73,-38.73,0,*62
1506639884.49,7214,16.94,74616.5,-3.71,-38.49,-38.61,0,*6F
1506639885.77,7215,16.94,74616.5,-3.71,-38.49,-38.49,0,*64
1506639887.05,7216,16.94,74616.8,-3.71,-38.29,-38.49,0,*61
1506639888.29,7217,16.94,74616.3,-3.73,-38.35,-38.43,0,*65
1506639889.52,7218,16.94,74616.0,-3.73,-38.35,-38.55,0,*6D
1506639890.75,7219,16.94,74612.5,-3.73,-38.35,-38.55,0,*6C
1506639891.99,7220,16.94,74612.8,-3.69,-38.29,-38.55,0,*60
1506639893.22,7221,16.94,74616.8,-3.73,-38.43,-38.61,0,*61
1506639894.47,7222,16.94,74616.5,-3.73,-38.43,-38.67,0,*64
1506639895.71,7223,16.94,74616.5,-3.73,-38.35,-38.55,0,*65
1506639896.96,7224,16.94,74614.5,-3.73,-38.23,-38.55,0,*65
1506639898.2,7225,16.94,74616.0,-3.73,-38.35,-38.55,0,*63
1506639899.43,7226,16.94,74616.3,-3.73,-38.35,-38.43,0,*67
1506639900.68,7227,16.94,74616.3,-3.73,-38.23,-38.43,0,*61
1506639901.92,7228,16.94,74618.5,-3.73,-38.05,-38.43,0,*6A
1506639903.15,7229,16.94,74612.3,-3.73,-38.17,-38.35,0,*69
1506639904.41,7230,16.94,74614.8,-3.73,-38.23,-38.35,0,*66
1506639905.67,7231,16.94,74616.8,-3.73,-38.23,-38.43,0,*66
1506639906.9,7232,16.94,74616.5,-3.73,-38.43,-38.61,0,*63
1506639908.12,7233,16.94,74616.3,-3.71,-38.35,-38.55,0,*66
1506639909.37,7234,16.94,74616.0,-3.71,-38.35,-38.49,0,*6C
1506639910.65,7235,16.94,74614.8,-3.71,-38.29,-38.49,0,*60
1506639911.91,7236,16.94,74616.0,-3.71,-38.49,-38.55,0,*68
1506639913.17,7237,16.94,74612.8,-3.71,-38.49,-38.55,0,*69
1506639914.43,7238,16.94,74616.8,-3.73,-38.55,-38.67,0,*68
1506639915.69,7239,16.94,74618.3,-3.73,-38.61,-38.67,0,*6E
1506639916.92,7240,16.94,74616.0,-3.73,-38.55,-38.55,0,*66
1506639918.15,7241,16.94,74618.5,-3.73,-38.35,-38.55,0,*61
1506639919.39,7242,16.94,74614.5,-3.73,-38.35,-38.55,0,*62
1506639920.59,7243,16.94,74616.0,-3.75,-38.43,-38.55,0,*64
1506639921.82,7244,16.94,74620.3,-3.73,-38.17,-38.35,0,*62
1506639923.06,7245,16.94,74614.3,-3.73,-38.05,-38.35,0,*60
1506639924.29,7246,16.94,74614.5,-3.73,-38.17,-38.35,0,*60
1506639925.55,7247,16.94,74616.8,-3.73,-38.05,-38.23,0,*65
1506639926.81,7248,16.94,74616.0,-3.73,-38.23,-38.43,0,*68
1506639928.04,7249,16.94,74614.5,-3.73,-38.55,-38.61,0,*68
1506639929.27,7250,16.94,74614.5,-3.73,-38.35,-38.61,0,*66
1506639930.5,7251,16.94,74618.8,-3.73,-38.55,-38.61,0,*61
1506639931.76,7252,16.94,74614.8,-3.73,-38.23,-38.55,0,*64
1506639933.02,7253,16.94,74616.3,-3.73,-38.23,-38.55,0,*65
1506639934.25,7254,16.94,74614.8,-3.73,-38.17,-38.35,0,*63
1506639935.49,7255,16.94,74614.5,-3.73,-38.17,-38.35,0,*62
1506639936.69,7256,16.94,74614.3,-3.75,-38.05,-38.17,0,*64
1506639937.97,7257,16.94,74612.8,-3.73,-37.99,-38.23,0,*6E
1506639939.21,7258,16.94,74614.3,-3.73,-37.87,-38.05,0,*6A
1506639940.44,7259,16.94,74618.3,-3.73,-38.17,-38.55,0,*68
1506639941.67,7260,16.94,74616.5,-3.73,-38.43,-38.61,0,*64
1506639942.93,7261,16.94,74612.3,-3.73,-38.23,-38.43,0,*63
1506639944.16,7262,16.94,74616.0,-3.75,-38.23,-38.43,0,*66
1506639945.41,7263,16.94,74618.8,-3.71,-38.11,-38.35,0,*63
1506639946.66,7264,16.94,74618.0,-3.73,-37.99,-38.17,0,*69
1506639947.89,7265,16.94,74614.5,-3.71,-38.17,-38.35,0,*63
1506639949.12,7266,16.94,74616.0,-3.73,-38.35,-38.55,0,*64
1506639950.38,7267,16.94,74618.8,-3.73,-38.23,-38.55,0,*62
1506639951.62,7268,16.94,74614.5,-3.73,-38.05,-38.35,0,*6F
1506639952.85,7269,16.94,74618.5,-3.73,-38.17,-38.35,0,*6D
1506639954.08,7270,16.94,74616.3,-3.73,-38.35,-38.43,0,*64
1506639955.34,7271,16.94,74616.0,-3.73,-38.55,-38.67,0,*65
1506639956.62,7272,16.94,74612.0,-3.71,-38.29,-38.49,0,*63
1506639957.87,7273,16.94,74618.0,-3.73,-38.23,-38.35,0,*61
1506639959.1,7274,16.94,74616.5,-3.75,-38.23,-38.43,0,*61
1506639960.34,7275,16.94,74616.5,-3.73,-38.05,-38.35,0,*63
1506639961.59,7276,16.94,74612.3,-3.73,-37.99,-38.17,0,*6A
1506639962.82,7277,16.94,74612.3,-3.73,-38.35,-38.43,0,*63
1506639964.06,7278,16.94,74614.3,-3.73,-38.35,-38.43,0,*6C
1506639965.29,7279,16.94,74614.8,-3.73,-38.17,-38.35,0,*6C
1506639966.52,7280,16.94,74612.8,-3.71,-38.17,-38.35,0,*68
1506639967.77,7281,16.94,74614.0,-3.73,-38.23,-38.43,0,*6D
1506639969.03,7282,16.94,74616.0,-3.73,-38.23,-38.43,0,*6E
1506639970.27,7283,16.94,74614.8,-3.73,-38.17,-38.35,0,*69
1506639971.5,7284,16.94,74614.8,-3.73,-38.17,-38.35,0,*6E
1506639972.76,7285,16.94,74612.5,-3.73,-38.23,-38.43,0,*69
1506639974.02,7286,16.94,74618.0,-3.73,-38.23,-38.35,0,*6B
1506639975.25,7287,16.94,74618.3,-3.73,-38.17,-38.43,0,*6C
1506639976.48,7288,16.94,74618.0,-3.73,-38.17,-38.35,0,*62
1506639977.74,7289,16.94,74612.3,-3.73,-38.23,-38.43,0,*65
1506639979.0,7290,16.94,74616.3,-3.73,-38.23,-38.55,0,*6A
1506639980.28,7291,16.94,74616.3,-3.71,-38.11,-38.29,0,*63
1506639981.55,7292,16.94,74614.5,-3.71,-38.11,-38.29,0,*60
1506639982.83,7293,16.94,74616.3,-3.71,-37.99,-38.29,0,*6E
1506639984.08,7294,16.94,74614.0,-3.71,-37.93,-38.17,0,*6E
1506639985.36,7295,16.94,74614.0,-3.71,-37.99,-38.29,0,*68
1506639986.62,7296,16.94,74614.8,-3.71,-38.11,-38.35,0,*69
1506639987.89,7297,16.94,74618.3,-3.71,-37.93,-38.11,0,*6B
1506639989.11,7298,16.94,74614.8,-3.71,-38.17,-38.17,0,*61
1506639990.37,7299,16.94,74618.0,-3.71,-38.17,-38.29,0,*6D
1506639991.62,7300,16.94,74616.0,-3.71,-37.99,-38.17,0,*68
1506639992.87,7301,16.94,74618.8,-3.71,-37.93,-38.17,0,*63
1506639994.1,7302,16.94,74616.5,-3.69,-37.99,-38.17,0,*63
1506639995.35,7303,16.94,74616.5,-3.71,-37.99,-38.17,0,*6B
1506639996.63,7304,16.94,74616.8,-3.71,-37.99,-38.11,0,*6A
1506639997.86,7305,16.94,74614.5,-3.69,-37.93,-38.17,0,*6E
1506639999.11,7306,16.94,74616.0,-3.69,-37.99,-38.11,0,*61
1506640000.34,7307,16.94,74616.0,-3.71,-38.17,-38.35,0,*66
1506640001.59,7308,16.94,74618.5,-3.71,-37.99,-38.17,0,*60
1506640002.86,7309,16.94,74616.3,-3.71,-37.99,-38.11,0,*67
1506640004.14,7310,16.94,74618.5,-3.71,-37.93,-38.11,0,*65
1506640005.4,7311,16.94,74616.0,-3.69,-37.81,-38.11,0,*6E
1506640006.67,7312,16.94,74616.5,-3.71,-37.93,-38.11,0,*67
1506640007.93,7313,16.94,74614.8,-3.69,-37.93,-38.29,0,*64
1506640009.16,7314,16.94,74614.8,-3.69,-37.99,-38.17,0,*64
1506640010.42,7315,16.94,74616.3,-3.69,-38.11,-38.29,0,*67
1506640011.68,7316,16.94,74618.5,-3.69,-37.99,-38.29,0,*6B
1506640012.91,7317,16.94,74614.8,-3.69,-37.99,-38.35,0,*67
1506640014.19,7318,16.94,74618.5,-3.71,-37.99,-38.29,0,*6C
1506640015.4,7319,16.94,74618.5,-3.69,-38.17,-38.35,0,*60
1506640016.68,7320,16.94,74614.3,-3.71,-38.11,-38.29,0,*68
1506640017.93,7321,16.94,74618.8,-3.71,-38.35,-38.49,0,*69
1506640019.21,7322,16.94,74616.0,-3.71,-38.29,-38.49,0,*67
1506640020.47,7323,16.94,74616.0,-3.69,-38.11,-38.29,0,*62
1506640021.67,7324,16.94,74616.3,-3.69,-38.17,-38.35,0,*6E
1506640022.91,7325,16.94,74618.5,-3.69,-38.17,-38.29,0,*62
1506640024.17,7326,16.94,74618.0,-3.71,-38.29,-38.35,0,*68
1506640025.39,7327,16.94,74612.5,-3.69,-38.35,-38.49,0,*66
1506640026.62,7328,16.94,74614.0,-3.69,-38.35,-38.49,0,*69
1506640027.88,7329,16.94,74614.8,-3.71,-38.49,-38.55,0,*67
1506640029.11,7330,16.94,74618.3,-3.71,-38.55,-38.61,0,*65
1506640030.32,7331,16.94,74618.3,-3.69,-38.35,-38.55,0,*6C
1506640031.54,7332,16.94,74616.8,-3.71,-38.61,-38.61,0,*60
1506640032.78,7333,16.94,74616.8,-3.69,-38.49,-38.55,0,*65
1506640034.01,7334,16.94,74614.8,-3.71,-38.61,-38.61,0,*66
1506640035.25,7335,16.94,74616.8,-3.69,-38.49,-38.55,0,*63
1506640036.51,7336,16.94,74614.0,-3.71,-38.49,-38.55,0,*69
1506640037.76,7337,16.94,74614.8,-3.71,-38.35,-38.49,0,*6E
1506640039.01,7338,16.94,74614.3,-3.71,-38.35,-38.49,0,*61
1506640040.26,7339,16.94,74614.8,-3.71,-38.35,-38.49,0,*60
1506640041.52,7340,16.94,74614.3,-3.73,-38.61,-38.67,0,*61
1506640042.75,7341,16.94,74614.8,-3.73,-38.43,-38.55,0,*61
1506640044.03,7342,16.94,74616.0,-3.71,-38.29,-38.49,0,*61
1506640045.26,7343,16.94,74612.0,-3.73,-38.35,-38.55,0,*62
1506640046.5,7344,16.94,74614.5,-3.73,-38.35,-38.43,0,*62
1506640047.73,7345,16.94,74614.8,-3.73,-38.17,-38.43,0,*63
1506640048.99,7346,16.94,74616.0,-3.73,-37.99,-38.35,0,*68
1506640050.22,7347,16.94,74618.8,-3.73,-38.05,-38.35,0,*63
1506640051.46,7348,16.94,74614.0,-3.73,-38.17,-38.35,0,*6F
1506640052.72,7349,16.94,74614.8,-3.73,-38.23,-38.43,0,*68
1506640053.97,7350,16.94,74612.5,-3.71,-38.29,-38.35,0,*69
1506640055.23,7351,16.94,74612.8,-3.71,-38.29,-38.35,0,*68
1506640056.46,7352,16.94,74614.8,-3.73,-38.35,-38.43,0,*65
1506640057.69,7353,16.94,74612.5,-3.73,-38.43,-38.55,0,*62
1506640058.94,7354,16.94,74610.8,-3.71,-38.35,-38.49,0,*6B
1506640060.17,7355,16.94,74616.8,-3.73,-38.35,-38.61,0,*62
1506640061.4,7356,16.94,74616.5,-3.73,-38.35,-38.35,0,*60
1506640062.61,7357,16.94,74612.5,-3.75,-38.35,-38.43,0,*66
1506640063.81,7358,16.94,74612.3,-3.75,-38.35,-38.55,0,*6E
1506640065.04,7359,16.94,74612.5,-3.73,-38.35,-38.61,0,*6E
1506640066.27,7360,16.94,74614.8,-3.73,-38.35,-38.55,0,*63
1506640067.5,7361,16.94,74614.5,-3.75,-38.23,-38.43,0,*64
1506640068.75,7362,16.94,74612.8,-3.73,-38.23,-38.43,0,*61
1506640069.99,7363,16.94,74614.8,-3.73,-38.43,-38.61,0,*66
1506640071.22,7364,16.94,74614.8,-3.73,-38.35,-38.55,0,*67
1506640072.45,7365,16.94,74614.8,-3.73,-38.35,-38.55,0,*66
1506640073.66,7366,16.94,74614.0,-3.75,-38.43,-38.55,0,*62
1506640074.89,7367,16.94,74612.0,-3.73,-38.43,-38.61,0,*62
1506640076.12,7368,16.94,74612.5,-3.73,-38.43,-38.55,0,*6A
1506640077.32,7369,16.94,74614.0,-3.75,-38.35,-38.43,0,*6B
1506640078.56,7370,16.94,74616.0,-3.73,-38.35,-38.43,0,*65
1506640079.76,7371,16.94,74616.0,-3.75,-38.35,-38.43,0,*62
1506640080.99,7372,16.94,74612.5,-3.73,-38.35,-38.61,0,*67
1506640082.19,7373,16.94,74614.8,-3.75,-38.35,-38.55,0,*67
1506640083.39,7374,16.94,74616.0,-3.75,-38.35,-38.55,0,*60
1506640084.6,7375,16.94,74612.5,-3.75,-38.17,-38.35,0,*67
1506640085.8,7376,16.94,74618.3,-3.75,-38.17,-38.35,0,*64
1506640087.03,7377,16.94,74614.0,-3.75,-38.23,-38.43,0,*63
1506640088.23,7378,16.94,74616.0,-3.75,-38.17,-38.35,0,*6A
1506640089.44,7379,16.94,74616.0,-3.75,-38.17,-38.35,0,*6B
1506640090.66,7380,16.94,74612.0,-3.75,-38.23,-38.35,0,*6A
1506640091.89,7381,16.94,74612.5,-3.75,-38.23,-38.43,0,*6A
1506640093.1,7382,16.94,74612.3,-3.75,-38.35,-38.35,0,*6F
1506640094.32,7383,16.94,74614.8,-3.75,-38.05,-38.23,0,*6A
1506640095.55,7384,16.94,74612.5,-3.75,-38.23,-38.43,0,*6F
1506640096.79,7385,16.94,74612.8,-3.73,-38.17,-38.35,0,*6E
1506640098.01,7386,16.94,74616.5,-3.75,-38.23,-38.43,0,*6D
1506640099.24,7387,16.94,74616.3,-3.75,-38.23,-38.43,0,*6C
1506640100.5,7388,16.94,74614.8,-3.73,-38.17,-38.23,0,*64
1506640101.73,7389,16.94,74616.3,-3.75,-38.23,-38.43,0,*62
1506640102.93,7390,16.94,74618.0,-3.75,-38.43,-38.55,0,*6B
1506640104.14,7391,16.94,74612.0,-3.75,-38.35,-38.43,0,*6C